Location: Donald C. Martin Observatory
(38.3885°N, 82.3916°W)
Time: 09:48:25
(UTC-04:00)

Cosmos 1484 Rocket - Visible Passes

Search period start: 23 July 2014 00:00
Search period end: 02 August 2014 00:00
Orbit: 515 x 575 km, 97.4° (Epoch: 22 July)

Date Brightness Start Highest point End Pass type
(mag) Time Alt. Az. Time Alt. Az. Time Alt. Az.
27 Jul 5.9 22:12:39 10° WSW 22:14:06 12° W 22:15:32 10° WNW visible
28 Jul 5.7 22:06:15 10° WSW 22:08:18 14° W 22:10:21 10° WNW visible
29 Jul 5.6 22:00:02 10° SW 22:02:31 16° W 22:05:00 10° NW visible
30 Jul 5.5 21:53:55 10° SW 21:56:44 18° W 21:59:32 10° NW visible
31 Jul 5.3 21:47:52 10° SW 21:50:57 21° W 21:54:01 10° NW visible
01 Aug 5.1 21:41:53 10° SSW 21:45:10 25° W 21:48:27 10° NW visible
